Time,TemperatureF,DewpointF,PressureIn,WindDirection,WindDirectionDegrees,WindSpeedMPH,WindSpeedGustMPH,Humidity,HourlyPrecipIn,Conditions,Clouds,dailyrainin,SolarRadiationWatts/m^2,SoftwareType,DateUTC
2013-10-18 00:13:00,38.0,37.0,-100.00,SSW,205,0.0,0.0,97,0.00,,,0.01,0.000000,,2013-10-18 05:13:00,
2013-10-18 00:23:00,38.0,37.0,-100.00,SSW,205,0.0,0.0,97,0.00,,,0.01,0.000000,,2013-10-18 05:23:00,
2013-10-18 00:34:00,38.0,37.0,-100.00,SSW,205,0.0,0.0,97,0.00,,,0.01,0.000000,,2013-10-18 05:34:00,
2013-10-18 01:12:00,39.0,38.0,-100.00,SE,137,0.0,0.0,97,0.00,,,0.01,0.000000,,2013-10-18 06:12:00,
2013-10-18 01:21:00,39.0,38.0,-100.00,SE,137,0.0,0.0,97,0.00,,,0.01,0.000000,,2013-10-18 06:21:00,
2013-10-18 01:33:00,39.0,38.0,-100.00,SE,137,0.0,0.0,97,0.00,,,0.01,0.000000,,2013-10-18 06:33:00,
2013-10-18 02:11:00,39.0,38.0,-100.00,ESE,104,0.0,0.0,98,0.00,,,0.01,0.000000,,2013-10-18 07:11:00,
2013-10-18 02:22:00,39.0,38.0,-100.00,ESE,104,0.0,0.0,98,0.00,,,0.01,0.000000,,2013-10-18 07:22:00,
2013-10-18 02:32:00,39.0,38.0,-100.00,ESE,104,0.0,0.0,98,0.00,,,0.01,0.000000,,2013-10-18 07:32:00,
2013-10-18 03:11:00,40.0,39.0,-100.00,SSW,198,0.0,2.0,98,0.02,,,0.03,0.000000,,2013-10-18 08:11:00,
2013-10-18 03:22:00,40.0,39.0,-100.00,SSW,198,0.0,2.0,98,0.02,,,0.03,0.000000,,2013-10-18 08:22:00,
2013-10-18 03:32:00,40.0,39.0,-100.00,SSW,198,0.0,2.0,98,0.02,,,0.03,0.000000,,2013-10-18 08:32:00,
2013-10-18 04:12:00,41.0,41.0,-100.00,NW,311,0.0,5.0,99,0.04,,,0.07,0.000000,,2013-10-18 09:12:00,
2013-10-18 04:21:00,41.0,41.0,-100.00,NW,311,0.0,5.0,99,0.04,,,0.07,0.000000,,2013-10-18 09:21:00,
2013-10-18 04:33:00,41.0,41.0,-100.00,NW,311,0.0,5.0,99,0.04,,,0.07,0.000000,,2013-10-18 09:33:00,
2013-10-18 05:12:00,41.0,40.0,-100.00,WNW,284,0.0,2.0,98,0.02,,,0.09,0.000000,,2013-10-18 10:12:00,
2013-10-18 05:23:00,41.0,40.0,-100.00,WNW,284,0.0,2.0,98,0.02,,,0.09,0.000000,,2013-10-18 10:23:00,
2013-10-18 05:33:00,41.0,40.0,-100.00,WNW,284,0.0,2.0,98,0.02,,,0.09,0.000000,,2013-10-18 10:33:00,
2013-10-18 06:12:00,41.0,40.0,-100.00,NNE,14,1.0,3.0,98,0.01,,,0.10,0.000000,,2013-10-18 11:12:00,
2013-10-18 06:22:00,41.0,40.0,-100.00,NNE,14,1.0,3.0,98,0.01,,,0.10,0.000000,,2013-10-18 11:22:00,
2013-10-18 06:33:00,41.0,40.0,-100.00,NNE,14,1.0,3.0,98,0.01,,,0.10,0.000000,,2013-10-18 11:33:00,
2013-10-18 07:12:00,41.0,40.0,-100.00,NW,306,0.0,3.0,98,0.01,,,0.11,0.000000,,2013-10-18 12:12:00,
2013-10-18 07:22:00,41.0,40.0,-100.00,NW,306,0.0,3.0,98,0.01,,,0.11,0.000000,,2013-10-18 12:22:00,
2013-10-18 07:32:00,41.0,40.0,-100.00,NW,306,0.0,3.0,98,0.01,,,0.11,0.000000,,2013-10-18 12:32:00,
2013-10-18 08:11:00,41.0,40.0,-100.00,NNE,25,4.0,8.0,96,0.02,,,0.13,1.000000,,2013-10-18 13:11:00,
2013-10-18 08:22:00,41.0,40.0,-100.00,NNE,25,4.0,8.0,96,0.02,,,0.13,1.000000,,2013-10-18 13:22:00,
2013-10-18 08:32:00,41.0,40.0,-100.00,NNE,25,4.0,8.0,96,0.02,,,0.13,1.000000,,2013-10-18 13:32:00,
2013-10-18 09:11:00,41.0,40.0,-100.00,NNE,25,4.0,8.0,96,0.02,,,0.15,24.000000,,2013-10-18 14:11:00,
2013-10-18 09:21:00,41.0,40.0,-100.00,NNE,25,4.0,8.0,96,0.02,,,0.15,24.000000,,2013-10-18 14:21:00,
2013-10-18 09:32:00,41.0,40.0,-100.00,NNE,25,4.0,8.0,96,0.02,,,0.15,24.000000,,2013-10-18 14:32:00,
2013-10-18 10:11:00,41.0,39.0,-100.00,NNE,29,4.0,9.0,93,0.00,,,0.14,77.000000,,2013-10-18 15:11:00,
2013-10-18 10:22:00,41.0,39.0,-100.00,NNE,29,4.0,9.0,93,0.00,,,0.14,77.000000,,2013-10-18 15:22:00,
2013-10-18 10:33:00,41.0,39.0,-100.00,NNE,29,4.0,9.0,93,0.00,,,0.14,77.000000,,2013-10-18 15:33:00,
2013-10-18 11:12:00,42.0,40.0,-100.00,North,7,3.0,8.0,93,0.02,,,0.16,96.000000,,2013-10-18 16:12:00,
2013-10-18 11:24:00,42.0,40.0,-100.00,North,7,3.0,8.0,93,0.02,,,0.16,96.000000,,2013-10-18 16:24:00,
2013-10-18 11:33:00,42.0,40.0,-100.00,North,7,3.0,8.0,93,0.02,,,0.16,96.000000,,2013-10-18 16:33:00,
2013-10-18 12:12:00,42.0,40.0,-100.00,NNW,347,7.0,12.0,91,0.03,,,0.19,164.000000,,2013-10-18 17:12:00,
2013-10-18 12:22:00,42.0,40.0,-100.00,NNW,347,7.0,12.0,91,0.03,,,0.19,164.000000,,2013-10-18 17:22:00,
2013-10-18 12:33:00,42.0,40.0,-100.00,NNW,347,7.0,12.0,91,0.03,,,0.19,164.000000,,2013-10-18 17:33:00,
2013-10-18 13:12:00,40.0,38.0,-100.00,North,352,8.0,16.0,92,0.02,,,0.21,171.000000,,2013-10-18 18:12:00,
2013-10-18 13:22:00,40.0,38.0,-100.00,North,352,8.0,16.0,92,0.02,,,0.21,171.000000,,2013-10-18 18:22:00,
2013-10-18 13:32:00,40.0,38.0,-100.00,North,352,8.0,16.0,92,0.02,,,0.21,171.000000,,2013-10-18 18:32:00,
2013-10-18 14:12:00,40.0,37.0,-100.00,North,351,8.0,16.0,90,0.02,,,0.23,194.000000,,2013-10-18 19:12:00,
2013-10-18 14:22:00,40.0,37.0,-100.00,North,351,8.0,16.0,90,0.02,,,0.23,194.000000,,2013-10-18 19:22:00,
2013-10-18 14:32:00,40.0,37.0,-100.00,North,351,8.0,16.0,90,0.02,,,0.23,194.000000,,2013-10-18 19:32:00,
2013-10-18 15:11:00,39.0,36.0,-100.00,North,352,6.0,14.0,90,0.00,,,0.23,228.000000,,2013-10-18 20:11:00,
2013-10-18 15:22:00,39.0,36.0,-100.00,North,352,6.0,14.0,90,0.00,,,0.23,228.000000,,2013-10-18 20:22:00,
2013-10-18 15:32:00,39.0,36.0,-100.00,North,352,6.0,14.0,90,0.00,,,0.23,228.000000,,2013-10-18 20:32:00,
2013-10-18 16:12:00,40.0,36.0,-100.00,NNW,343,5.0,11.0,84,0.00,,,0.23,174.000000,,2013-10-18 21:12:00,
2013-10-18 16:22:00,40.0,36.0,-100.00,NNW,343,5.0,11.0,84,0.00,,,0.23,174.000000,,2013-10-18 21:22:00,
2013-10-18 16:34:00,40.0,36.0,-100.00,NNW,343,5.0,11.0,84,0.00,,,0.23,174.000000,,2013-10-18 21:34:00,
2013-10-18 17:13:00,40.0,36.0,-100.00,NNW,337,3.0,9.0,86,0.00,,,0.23,102.000000,,2013-10-18 22:13:00,
2013-10-18 17:24:00,40.0,36.0,-100.00,NNW,337,3.0,9.0,86,0.00,,,0.23,102.000000,,2013-10-18 22:24:00,
2013-10-18 17:33:00,40.0,36.0,-100.00,NNW,337,3.0,9.0,86,0.00,,,0.23,102.000000,,2013-10-18 22:33:00,
2013-10-18 18:12:00,39.0,34.0,-100.00,NW,307,2.0,5.0,83,0.00,,,0.23,43.000000,,2013-10-18 23:12:00,
2013-10-18 18:23:00,39.0,34.0,-100.00,NW,307,2.0,5.0,83,0.00,,,0.23,43.000000,,2013-10-18 23:23:00,
2013-10-18 18:34:00,39.0,34.0,-100.00,NW,307,2.0,5.0,83,0.00,,,0.23,43.000000,,2013-10-18 23:34:00,
2013-10-18 19:11:00,37.0,35.0,-100.00,WSW,258,0.0,2.0,93,0.00,,,-99.99,8.000000,,2013-10-19 00:11:00,
2013-10-18 19:22:00,37.0,35.0,-100.00,WSW,258,0.0,2.0,93,0.00,,,-99.99,8.000000,,2013-10-19 00:22:00,
2013-10-18 19:32:00,37.0,35.0,-100.00,WSW,258,0.0,2.0,93,0.00,,,-99.99,8.000000,,2013-10-19 00:32:00,
2013-10-18 20:12:00,33.0,32.0,-100.00,SSW,209,0.0,2.0,96,0.00,,,0.23,0.000000,,2013-10-19 01:12:00,
2013-10-18 20:21:00,33.0,32.0,-100.00,SSW,209,0.0,2.0,96,0.00,,,0.23,0.000000,,2013-10-19 01:21:00,
2013-10-18 20:32:00,33.0,32.0,-100.00,SSW,209,0.0,2.0,96,0.00,,,0.23,0.000000,,2013-10-19 01:32:00,
2013-10-18 21:12:00,30.0,29.0,-100.00,SSW,204,0.0,2.0,97,0.00,,,0.23,0.000000,,2013-10-19 02:12:00,
2013-10-18 21:22:00,30.0,29.0,-100.00,SSW,204,0.0,2.0,97,0.00,,,0.23,0.000000,,2013-10-19 02:22:00,
2013-10-18 21:32:00,30.0,29.0,-100.00,SSW,204,0.0,2.0,97,0.00,,,0.23,0.000000,,2013-10-19 02:32:00,
2013-10-18 22:12:00,30.0,29.0,-100.00,SSW,213,0.0,0.0,98,0.00,,,0.23,0.000000,,2013-10-19 03:12:00,
2013-10-18 22:23:00,30.0,29.0,-100.00,SSW,213,0.0,0.0,98,0.00,,,0.23,0.000000,,2013-10-19 03:23:00,
2013-10-18 22:34:00,30.0,29.0,-100.00,SSW,213,0.0,0.0,98,0.00,,,0.23,0.000000,,2013-10-19 03:34:00,
2013-10-18 23:13:00,30.0,29.0,-100.00,SW,228,0.0,0.0,98,0.00,,,0.23,0.000000,,2013-10-19 04:13:00,
2013-10-18 23:24:00,30.0,29.0,-100.00,SW,228,0.0,0.0,98,0.00,,,0.23,0.000000,,2013-10-19 04:24:00,
2013-10-18 23:34:00,30.0,29.0,-100.00,SW,228,0.0,0.0,98,0.00,,,0.23,0.000000,,2013-10-19 04:34:00,